カタログに戻る

STARLINK-6168

運用中通信VLEO
NORAD 57369·PAYLOAD·🇺🇸 United States

打ち上げ Jul 16, 2023 から Cape Canaveral Space Force Station

Loading…

次のパス (今後24時間)

TLE

最新Source: CelesTrak SupGP

元期: Sep 14, 2026, 20:46 UTC

1 57369C 23099AT  26257.86576389  .00041847  00000+0  12574-2 0  2578
2 57369  43.0009 250.4043 0005546 118.1076 297.9443 15.33553369    12

AllMySatでSTARLINK-6168をリアルタイム追跡

Download on the App Store